Regional Weather Roundup
Issued by NWS Portland, ME

Current Version | Previous Version | Text Only | Print | Product List | Glossary Off
Versions: 1 2 3 4 5 6 7 8 9 10 11 12 13 14 15 16 17 18 19 20 21 22 23 24 25 26 27 28 29 30 31 32 33 34 35 36 37 38 39 40 41 42 43 44 45 46 47 48 49 50
000 ASUS41 KGYX 242105 RWRGYX WEATHER ROUNDUP FOR MAINE AND NEW HAMPSHIRE NATIONAL WEATHER SERVICE GRAY ME 500 PM EDT FRI MAR 24 2017 MEZ002-005-006-010-012-015-018-020-021-024-026-027-029-242200- MAINE CITY SKY/WX TMP DP RH WIND PRES REMARKS PORTLAND LGT SNOW 33 31 92 S8 30.16F FOG SANFORD LGT SNOW 33 31 92 S3 30.14F FOG WISCASSET LGT SNOW 34 32 92 SW8 30.17F VSB 1 ROCKLAND LGT SNOW 33 32 96 S12G20 30.16F FOG FRYEBURG SNOW 30 28 92 S3 30.11F VSB 1/2 LEWISTONAUBURN MIX PCPN 33 30 88 S7 30.12F FOG AUGUSTA LGT SNOW 32 29 88 SW8G17 30.14F FOG WATERVILLE LGT SNOW 32 29 88 SW5 30.11F FOG BANGOR LGT SNOW 31 30 96 S9 30.14F VSB 1 GREENVILLE N/A 25 24 96 S8 30.02F MILLINOCKET LGT SNOW 28 26 92 CALM 30.13F FOG HOULTON LGT SNOW 28 23 81 S12G20 30.10F WCI 18 PRESQUE ISLE CLOUDY 29 21 72 S17G25 30.08F WCI 17 FRENCHVILLE CLOUDY 28 14 55 S14G24 30.00F WCI 17 CARIBOU CLOUDY 29 19 66 S14G26 30.05F WCI 18 $$ NHZ002-005-008-009-011-012-014-242200- NEW HAMPSHIRE CITY SKY/WX TMP DP RH WIND PRES REMARKS PORTSMOUTH LGT RAIN 34 33 94 SE6 30.12F FOG ROCHESTER LGT RAIN 33 30 88 S3 30.12F FOG NASHUA CLOUDY 35 34 96 CALM 30.13F FOG MANCHESTER CLOUDY 35 31 85 SE3 30.11F CONCORD LGT RAIN 33 31 92 SE5 30.12S FOG LACONIA LGT SNOW 32 28 86 CALM 30.10F FOG PLYMOUTH LGT SNOW 29 27 94 CALM 30.11F BERLIN LGT SNOW 29 25 85 S3 30.03F VSB 3/4 WHITEFIELD LGT SNOW 30 26 85 CALM 30.02F VSB 3/4 JAFFREY CLOUDY 36 30 79 VRB7 30.07S KEENE CLOUDY 35 32 88 CALM 30.09F LEBANON FRZ RAIN 34 31 88 S5 30.05F FOG MT WASHINGTON SNOW 18 18 100 W49G58 N/A VSB 0 WCI -6 $$ VTZ005-007-008-242200- VERMONT CITY SKY/WX TMP DP RH WIND PRES REMARKS ST JOHNSBURY N/A 29 27 92 MISG 30.01F MONTPELIER FRZ RAIN 29 27 92 S8 30.03F BURLINGTON RAIN 34 30 85 S13G23 30.02R FOG $$ MAZ007-012-024-CTZ003-RIZ002-NYZ038-NYZ072-242200- SOUTHERN NEW ENGLAND AND NY CITY SKY/WX TMP DP RH WIND PRES REMARKS BOSTON CLOUDY 41 30 65 SW18 30.13F WORCESTER CLOUDY 38 25 59 SW17 30.09F NANTUCKET CLOUDY 42 36 79 S17 30.21F PROVIDENCE CLOUDY 45 28 51 SW14G24 30.17F HARTFORD PTSUNNY 44 29 55 SW12 30.13F ALBANY CLOUDY 40 30 67 S15G28 30.06F NEW YORK CITY CLOUDY 55 31 39 SW14G22 30.14F $$ ANZ081-ANZ082-ANZ150-NHZ014-MEZ023>029-242200- COASTAL MARINE OBSERVATIONS STATION/POSITION TIME TEMP WIND PRES WAVE AIR SEA DIR/SP/G HT/PER (UTC) (F) (DEG/KT/KT) (MB) (FT/S) MOUNT DESERT ROC 2100 34 1022.4F MATINICUS ROCK 2000 33 200/ 29/ 33 1022.7F ISLE OF SHOALS 2000 35 180/ 18/ 19 1021.2F JEFFREYS LEDGE 2006 40 N/A 7/ 6 CASHES LEDGE BUO 1950 35 39 1023.6 6/ 6 GEORGES BANK BUO 1950 40 41 1030.4 4/ 6 $$ .............KEY.............. WCI - WIND CHILL TC - TEMPERATURE IN CELSIUS VSB - VISIBILITY IN MILES HX - HEAT INDEX FAIR- INDICATES FEW OR NO CLOUDS BELOW 12,000 FT, WITH NO SIGNIFICANT WEATHER AND/OR OBSTRUCTIONS TO VISIBILITY.

USA.gov is the U.S. government's official web portal to all federal, state and local government web resources and services.